Time,TemperatureF,DewpointF,PressureIn,WindDirection,WindDirectionDegrees,WindSpeedMPH,WindSpeedGustMPH,Humidity,HourlyPrecipIn,Conditions,Clouds,dailyrainin,SoftwareType,DateUTC
2013-09-23 00:06:00,52.5,51.7,29.94,South,180,0.0,-999.0,97,-99.99,,,0.00,Acu-Link.com,2013-09-23 05:06:00,
2013-09-23 00:21:00,52.5,51.7,29.94,North,0,0.0,-999.0,97,-99.99,,,0.00,Acu-Link.com,2013-09-23 05:21:00,
2013-09-23 00:37:00,52.5,51.7,29.94,SSE,157,0.0,-999.0,97,-99.99,,,0.00,Acu-Link.com,2013-09-23 05:37:00,
2013-09-23 00:52:00,52.5,51.7,29.94,NE,45,0.0,-999.0,97,-99.99,,,0.00,Acu-Link.com,2013-09-23 05:52:00,
2013-09-23 01:07:00,52.2,51.4,29.95,North,0,0.0,-999.0,97,-99.99,,,0.00,Acu-Link.com,2013-09-23 06:07:00,
2013-09-23 01:22:00,51.8,51.0,29.95,NNW,337,0.0,-999.0,97,-99.99,,,0.00,Acu-Link.com,2013-09-23 06:22:00,
2013-09-23 01:37:00,51.4,50.6,29.95,NNE,22,0.0,-999.0,97,-99.99,,,0.00,Acu-Link.com,2013-09-23 06:37:00,
2013-09-23 01:52:00,51.1,50.3,29.95,NNW,337,0.0,-999.0,97,-99.99,,,0.00,Acu-Link.com,2013-09-23 06:52:00,
2013-09-23 02:07:00,50.9,50.1,29.95,North,0,0.0,-999.0,97,-99.99,,,0.00,Acu-Link.com,2013-09-23 07:07:00,
2013-09-23 02:22:00,50.9,50.1,29.95,NNW,337,0.0,-999.0,97,-99.99,,,0.00,Acu-Link.com,2013-09-23 07:22:00,
2013-09-23 02:37:00,50.7,49.9,29.96,North,0,3.2,-999.0,97,-99.99,,,0.00,Acu-Link.com,2013-09-23 07:37:00,
2013-09-23 02:52:00,50.5,49.7,29.96,ENE,67,0.0,-999.0,97,-99.99,,,0.00,Acu-Link.com,2013-09-23 07:52:00,
2013-09-23 03:08:00,50.2,49.4,29.96,NW,315,2.2,-999.0,97,-99.99,,,0.00,Acu-Link.com,2013-09-23 08:08:00,
2013-09-23 03:23:00,50.0,49.2,29.96,NNW,337,2.2,-999.0,97,-99.99,,,0.00,Acu-Link.com,2013-09-23 08:23:00,
2013-09-23 03:38:00,50.0,49.2,29.96,North,0,1.7,-999.0,97,-99.99,,,0.00,Acu-Link.com,2013-09-23 08:38:00,
2013-09-23 03:53:00,49.6,48.8,29.97,North,0,0.0,-999.0,97,-99.99,,,0.00,Acu-Link.com,2013-09-23 08:53:00,
2013-09-23 04:09:00,49.3,48.5,29.97,NW,315,0.0,-999.0,97,-99.99,,,0.00,Acu-Link.com,2013-09-23 09:09:00,
2013-09-23 04:24:00,48.9,48.1,29.97,NNE,22,1.7,-999.0,97,-99.99,,,0.00,Acu-Link.com,2013-09-23 09:24:00,
2013-09-23 04:39:00,48.7,47.9,29.98,North,0,0.0,-999.0,97,-99.99,,,0.00,Acu-Link.com,2013-09-23 09:39:00,
2013-09-23 04:54:00,48.2,47.4,29.98,NE,45,0.0,-999.0,97,-99.99,,,0.00,Acu-Link.com,2013-09-23 09:54:00,
2013-09-23 05:09:00,48.2,47.4,29.99,NNE,22,0.0,-999.0,97,-99.99,,,0.00,Acu-Link.com,2013-09-23 10:09:00,
2013-09-23 05:24:00,48.2,47.4,29.99,NW,315,0.0,-999.0,97,-99.99,,,0.00,Acu-Link.com,2013-09-23 10:24:00,
2013-09-23 05:39:00,48.0,47.2,30.00,WNW,292,0.0,-999.0,97,-99.99,,,0.00,Acu-Link.com,2013-09-23 10:39:00,
2013-09-23 05:54:00,48.2,47.4,30.00,NE,45,0.0,-999.0,97,-99.99,,,0.00,Acu-Link.com,2013-09-23 10:54:00,
2013-09-23 06:10:00,48.4,47.6,30.01,ENE,67,0.0,-999.0,97,-99.99,,,0.00,Acu-Link.com,2013-09-23 11:10:00,
2013-09-23 06:25:00,48.6,47.8,30.02,NE,45,0.0,-999.0,97,-99.99,,,0.00,Acu-Link.com,2013-09-23 11:25:00,
2013-09-23 06:40:00,48.6,47.8,30.02,NNW,337,1.1,-999.0,97,-99.99,,,0.00,Acu-Link.com,2013-09-23 11:40:00,
2013-09-23 06:55:00,48.6,47.8,30.02,North,0,2.7,-999.0,97,-99.99,,,0.00,Acu-Link.com,2013-09-23 11:55:00,
2013-09-23 07:10:00,48.9,48.1,30.02,ENE,67,0.0,-999.0,97,-99.99,,,0.00,Acu-Link.com,2013-09-23 12:10:00,
2013-09-23 07:26:00,49.3,48.5,30.02,SSE,157,0.0,-999.0,97,-99.99,,,0.00,Acu-Link.com,2013-09-23 12:26:00,
2013-09-23 07:41:00,50.0,49.2,30.02,ENE,67,0.0,-999.0,97,-99.99,,,0.00,Acu-Link.com,2013-09-23 12:41:00,
2013-09-23 07:56:00,50.2,49.4,30.03,South,180,0.0,-999.0,97,-99.99,,,0.00,Acu-Link.com,2013-09-23 12:56:00,
2013-09-23 08:12:00,50.5,49.4,30.03,SSW,202,0.0,-999.0,96,-99.99,,,0.00,Acu-Link.com,2013-09-23 13:12:00,
2013-09-23 08:27:00,52.2,50.8,30.03,SW,225,0.0,-999.0,95,-99.99,,,0.00,Acu-Link.com,2013-09-23 13:27:00,
2013-09-23 08:42:00,57.7,54.2,30.04,NE,45,3.2,-999.0,88,-99.99,,,0.00,Acu-Link.com,2013-09-23 13:42:00,
2013-09-23 08:57:00,58.6,53.1,30.03,NE,45,2.2,-999.0,82,-99.99,,,0.00,Acu-Link.com,2013-09-23 13:57:00,
2013-09-23 09:21:00,58.1,53.3,30.04,SE,135,2.2,-999.0,84,-99.99,,,0.00,Acu-Link.com,2013-09-23 14:21:00,
2013-09-23 09:37:00,58.1,53.0,30.04,West,270,0.0,-999.0,83,-99.99,,,0.00,Acu-Link.com,2013-09-23 14:37:00,
2013-09-23 09:52:00,59.5,54.0,30.04,NE,45,2.2,-999.0,82,-99.99,,,0.00,Acu-Link.com,2013-09-23 14:52:00,
2013-09-23 10:07:00,62.4,55.8,30.04,SE,135,2.2,-999.0,79,-99.99,,,0.00,Acu-Link.com,2013-09-23 15:07:00,
2013-09-23 10:22:00,63.3,54.5,30.05,SSE,157,4.2,-999.0,73,-99.99,,,0.00,Acu-Link.com,2013-09-23 15:22:00,
2013-09-23 10:37:00,64.6,55.4,30.05,ESE,112,0.0,-999.0,72,-99.99,,,0.00,Acu-Link.com,2013-09-23 15:37:00,
2013-09-23 10:53:00,64.4,54.4,30.04,SW,225,2.2,-999.0,70,-99.99,,,0.00,Acu-Link.com,2013-09-23 15:53:00,
2013-09-23 11:10:00,63.1,53.5,30.04,North,0,1.7,-999.0,71,-99.99,,,0.00,Acu-Link.com,2013-09-23 16:10:00,
2013-09-23 11:25:00,62.8,52.5,30.04,North,0,4.2,-999.0,69,-99.99,,,0.00,Acu-Link.com,2013-09-23 16:25:00,
2013-09-23 11:41:00,64.6,53.4,30.04,West,270,2.2,-999.0,67,-99.99,,,0.00,Acu-Link.com,2013-09-23 16:41:00,
2013-09-23 11:56:00,68.4,53.5,30.04,NW,315,0.0,-999.0,59,-99.99,,,0.00,Acu-Link.com,2013-09-23 16:56:00,
2013-09-23 12:12:00,69.8,53.4,30.03,NNE,22,3.7,-999.0,56,-99.99,,,0.00,Acu-Link.com,2013-09-23 17:12:00,
2013-09-23 12:27:00,66.9,51.6,30.03,NW,315,3.7,-999.0,58,-99.99,,,0.00,Acu-Link.com,2013-09-23 17:27:00,
2013-09-23 12:43:00,67.6,51.8,30.03,SSW,202,2.7,-999.0,57,-99.99,,,0.00,Acu-Link.com,2013-09-23 17:43:00,
2013-09-23 12:58:00,71.1,53.1,30.02,WNW,292,2.7,-999.0,53,-99.99,,,0.00,Acu-Link.com,2013-09-23 17:58:00,
2013-09-23 13:13:00,67.5,51.7,30.02,WNW,292,2.2,-999.0,57,-99.99,,,0.00,Acu-Link.com,2013-09-23 18:13:00,
2013-09-23 13:28:00,67.3,52.0,30.01,NW,315,2.7,-999.0,58,-99.99,,,0.00,Acu-Link.com,2013-09-23 18:28:00,
2013-09-23 13:43:00,68.4,52.6,30.01,ESE,112,3.2,-999.0,57,-99.99,,,0.00,Acu-Link.com,2013-09-23 18:43:00,
2013-09-23 13:59:00,70.9,54.4,30.01,North,0,2.2,-999.0,56,-99.99,,,0.00,Acu-Link.com,2013-09-23 18:59:00,
2013-09-23 14:14:00,67.5,51.7,30.00,NNW,337,4.7,-999.0,57,-99.99,,,0.00,Acu-Link.com,2013-09-23 19:14:00,
2013-09-23 14:31:00,69.1,54.2,30.00,North,0,1.7,-999.0,59,-99.99,,,0.00,Acu-Link.com,2013-09-23 19:31:00,
2013-09-23 14:46:00,69.3,52.9,30.00,SE,135,2.2,-999.0,56,-99.99,,,0.00,Acu-Link.com,2013-09-23 19:46:00,
2013-09-23 15:01:00,68.7,52.4,29.99,NNW,337,3.2,-999.0,56,-99.99,,,0.00,Acu-Link.com,2013-09-23 20:01:00,
2013-09-23 15:17:00,66.9,51.6,29.99,North,0,2.2,-999.0,58,-99.99,,,0.00,Acu-Link.com,2013-09-23 20:17:00,
2013-09-23 15:32:00,64.4,50.7,29.99,NNW,337,4.2,-999.0,61,-99.99,,,0.00,Acu-Link.com,2013-09-23 20:32:00,
2013-09-23 15:47:00,64.8,51.5,30.00,WNW,292,3.7,-999.0,62,-99.99,,,0.00,Acu-Link.com,2013-09-23 20:47:00,
2013-09-23 16:02:00,64.2,51.8,30.00,WSW,247,1.1,-999.0,64,-99.99,,,0.00,Acu-Link.com,2013-09-23 21:02:00,
2013-09-23 16:17:00,64.2,51.8,30.00,NNE,22,4.7,-999.0,64,-99.99,,,0.00,Acu-Link.com,2013-09-23 21:17:00,
2013-09-23 16:32:00,63.0,51.0,30.00,WNW,292,4.7,-999.0,65,-99.99,,,0.00,Acu-Link.com,2013-09-23 21:32:00,
2013-09-23 16:48:00,62.4,51.3,30.00,NW,315,0.0,-999.0,67,-99.99,,,0.00,Acu-Link.com,2013-09-23 21:48:00,
2013-09-23 17:03:00,61.5,50.4,30.00,North,0,2.7,-999.0,67,-99.99,,,0.00,Acu-Link.com,2013-09-23 22:03:00,
2013-09-23 17:18:00,60.3,51.6,30.00,West,270,0.0,-999.0,73,-99.99,,,0.00,Acu-Link.com,2013-09-23 22:18:00,
2013-09-23 17:34:00,58.8,51.3,30.00,North,0,1.7,-999.0,76,-99.99,,,0.00,Acu-Link.com,2013-09-23 22:34:00,
2013-09-23 17:49:00,57.4,50.9,30.01,NNE,22,0.0,-999.0,79,-99.99,,,0.00,Acu-Link.com,2013-09-23 22:49:00,
2013-09-23 18:04:00,56.1,50.7,30.01,NNE,22,0.0,-999.0,82,-99.99,,,0.00,Acu-Link.com,2013-09-23 23:04:00,
2013-09-23 18:19:00,55.0,50.6,30.01,South,180,0.0,-999.0,85,-99.99,,,0.00,Acu-Link.com,2013-09-23 23:19:00,
2013-09-23 18:34:00,54.0,50.2,30.01,ESE,112,0.0,-999.0,87,-99.99,,,0.00,Acu-Link.com,2013-09-23 23:34:00,
2013-09-23 18:49:00,53.2,49.7,30.01,NW,315,0.0,-999.0,88,-99.99,,,0.00,Acu-Link.com,2013-09-23 23:49:00,
2013-09-23 19:04:00,52.2,49.4,30.01,NNE,22,0.0,-999.0,90,-99.99,,,0.00,Acu-Link.com,2013-09-24 00:04:00,
2013-09-23 19:32:00,52.2,49.7,30.01,NNW,337,0.0,-999.0,91,-99.99,,,0.00,Acu-Link.com,2013-09-24 00:32:00,
2013-09-23 19:47:00,50.7,48.8,30.02,NW,315,0.0,-999.0,93,-99.99,,,0.00,Acu-Link.com,2013-09-24 00:47:00,
2013-09-23 20:02:00,50.0,48.1,30.02,WSW,247,0.0,-999.0,93,-99.99,,,0.00,Acu-Link.com,2013-09-24 01:02:00,
2013-09-23 20:17:00,49.8,47.9,30.02,NNE,22,0.0,-999.0,93,-99.99,,,0.00,Acu-Link.com,2013-09-24 01:17:00,
2013-09-23 20:33:00,49.5,47.8,30.02,North,0,0.0,-999.0,94,-99.99,,,0.00,Acu-Link.com,2013-09-24 01:33:00,
2013-09-23 20:48:00,49.3,47.6,30.02,NW,315,0.0,-999.0,94,-99.99,,,0.00,Acu-Link.com,2013-09-24 01:48:00,
2013-09-23 21:03:00,48.9,47.5,30.02,WNW,292,0.0,-999.0,95,-99.99,,,0.00,Acu-Link.com,2013-09-24 02:03:00,
2013-09-23 21:18:00,48.6,47.2,30.03,NNW,337,0.0,-999.0,95,-99.99,,,0.00,Acu-Link.com,2013-09-24 02:18:00,
2013-09-23 21:33:00,48.4,47.0,30.03,NNE,22,0.0,-999.0,95,-99.99,,,0.00,Acu-Link.com,2013-09-24 02:33:00,
2013-09-23 21:48:00,48.2,46.8,30.03,NE,45,0.0,-999.0,95,-99.99,,,0.00,Acu-Link.com,2013-09-24 02:48:00,
2013-09-23 22:03:00,47.8,46.4,30.03,NE,45,0.0,-999.0,95,-99.99,,,0.00,Acu-Link.com,2013-09-24 03:03:00,
2013-09-23 22:18:00,47.7,46.3,30.03,NNW,337,0.0,-999.0,95,-99.99,,,0.00,Acu-Link.com,2013-09-24 03:18:00,
2013-09-23 22:33:00,47.7,46.6,30.03,NW,315,0.0,-999.0,96,-99.99,,,0.00,Acu-Link.com,2013-09-24 03:33:00,
2013-09-23 22:49:00,47.8,46.7,30.03,NW,315,0.0,-999.0,96,-99.99,,,0.00,Acu-Link.com,2013-09-24 03:49:00,
2013-09-23 23:04:00,48.2,47.1,30.02,NW,315,0.0,-999.0,96,-99.99,,,0.00,Acu-Link.com,2013-09-24 04:04:00,
2013-09-23 23:19:00,48.6,47.5,30.02,West,270,0.0,-999.0,96,-99.99,,,0.00,Acu-Link.com,2013-09-24 04:19:00,
2013-09-23 23:35:00,48.7,47.9,30.02,SSE,157,0.0,-999.0,97,-99.99,,,0.00,Acu-Link.com,2013-09-24 04:35:00,
2013-09-23 23:51:00,48.4,47.6,30.02,NNE,22,0.0,-999.0,97,-99.99,,,0.00,Acu-Link.com,2013-09-24 04:51:00,